PBO Station Position Time Series. Reference Frame : NAM14
Format Version,1.1.1
4-character ID,SUTW
Station name,SUTW_CHIG_AK2021
Begin Date, 2022-04-10
End Date, 2023-06-26
Release Date, 2023-06-27
Reference position, 56.5764274948 North Latitude, -157.1082782623 East Longitude, 227.65491 meters elevation,
Date, North (mm), East (mm), Vertical (mm), North Std. Deviation (mm), East Std. Deviation (mm),              Vertical Std. Deviation (mm), Quality,
2022-04-10,0.00, 0.00, 0.00, 3.63, 2.79, 9.46, suppf,
2022-04-11,1.78, -1.70, -9.10, 3.66, 2.80, 9.60, suppf,
2022-04-12,1.44, -1.83, -1.66, 3.45, 2.63, 9.15, suppf,
2022-04-13,2.32, -1.35, -6.03, 3.64, 2.79, 9.50, suppf,
2022-04-14,0.61, -0.47, -6.18, 4.01, 3.03, 9.92, suppf,
2022-04-15,0.97, -2.28, 4.14, 3.63, 2.77, 9.60, suppf,
2022-04-16,0.08, -2.82, -2.61, 3.50, 2.67, 9.40, suppf,
2022-04-17,0.99, -3.34, -3.16, 3.47, 2.62, 9.14, suppf,
2022-04-18,1.38, -2.61, 3.93, 3.51, 2.65, 9.18, suppf,
2022-04-19,0.13, -2.39, 6.31, 3.52, 2.66, 9.23, suppf,
2022-04-20,0.46, -1.60, 4.28, 3.56, 2.72, 9.37, suppf,
2022-04-21,-0.27, -0.72, 7.26, 3.70, 2.82, 9.55, suppf,
2022-04-22,-0.15, -2.27, 4.63, 3.63, 2.73, 9.42, suppf,
2022-04-23,-0.22, -2.60, 1.26, 3.51, 2.71, 9.30, suppf,
2022-04-24,-1.55, -1.65, 3.94, 3.51, 2.66, 9.22, suppf,
2022-04-25,2.58, -2.66, 3.99, 3.52, 2.68, 9.25, suppf,
2022-04-26,0.10, -3.37, 3.64, 3.54, 2.65, 9.26, suppf,
2022-04-27,0.52, -3.08, 3.98, 3.65, 2.78, 9.69, suppf,
2022-04-28,0.26, -1.66, -5.34, 3.87, 3.00, 10.06, suppf,
2022-04-29,1.92, -2.05, 2.00, 4.10, 3.19, 10.60, suppf,
2022-04-30,0.10, -1.23, 2.22, 3.71, 2.79, 9.47, suppf,
2022-05-01,-1.50, -1.61, 0.93, 3.62, 2.79, 9.44, suppf,
2022-05-02,-1.94, -2.43, 1.21, 3.64, 2.73, 9.44, suppf,
2022-05-03,-2.84, -1.06, 1.24, 3.71, 2.84, 9.71, suppf,
2022-05-04,-2.93, -1.13, 9.40, 3.75, 2.84, 9.71, suppf,
2022-05-05,-1.20, -1.40, 0.14, 3.55, 2.67, 9.19, suppf,
2022-05-06,-1.01, -2.35, -1.00, 3.51, 2.66, 9.20, suppf,
2022-05-07,-2.64, -2.78, 5.43, 3.52, 2.67, 9.19, suppf,
2022-05-08,-0.77, -1.40, 6.11, 3.55, 2.71, 9.26, suppf,
2022-05-09,1.12, -2.97, 4.04, 3.59, 2.71, 9.39, suppf,
2022-05-10,-2.83, -3.13, 4.60, 3.50, 2.61, 9.19, suppf,
2022-05-11,-0.99, -3.10, 5.64, 3.59, 2.76, 9.44, suppf,
2022-05-12,-4.23, -3.00, 6.72, 3.60, 2.74, 9.48, suppf,
2022-05-13,-0.44, -2.62, 10.65, 3.60, 2.75, 9.47, suppf,
2022-05-14,-1.67, -1.27, 3.32, 3.57, 2.76, 9.42, suppf,
2022-05-15,-4.52, -2.42, -0.47, 3.55, 2.67, 9.25, suppf,
2022-05-16,-1.89, -2.24, 9.90, 3.49, 2.66, 9.23, suppf,
2022-05-17,-4.28, -0.55, 7.83, 3.53, 2.70, 9.28, suppf,
2022-05-18,-2.53, -1.28, -4.11, 3.47, 2.62, 9.15, suppf,
2022-05-19,-1.97, -0.46, 0.55, 3.64, 2.73, 9.45, suppf,
2022-05-20,-3.92, -0.82, -0.40, 3.67, 2.78, 9.60, suppf,
2022-05-21,-2.43, -1.47, 2.38, 3.57, 2.72, 9.39, suppf,
2022-05-22,-2.47, -1.97, -0.59, 3.65, 2.79, 9.51, suppf,
2022-05-23,-3.71, -1.55, 8.08, 3.51, 2.65, 9.23, suppf,
2022-05-24,-2.81, -2.44, -0.90, 3.52, 2.67, 9.24, suppf,
2022-05-25,-2.01, -1.77, -0.07, 3.52, 2.70, 9.21, suppf,
2022-05-26,-3.51, -1.93, -1.50, 3.58, 2.75, 9.46, suppf,
2022-05-27,-3.88, -2.43, 5.67, 3.68, 2.79, 9.56, suppf,
2022-05-28,-3.52, -1.55, 8.72, 3.71, 2.83, 9.42, suppf,
2022-05-29,-3.58, -0.64, 4.92, 3.69, 2.82, 9.42, suppf,
2022-05-30,-5.60, -0.73, -0.83, 3.66, 2.80, 9.42, suppf,
2022-05-31,-4.25, -1.56, -0.44, 3.70, 2.88, 9.56, suppf,
2022-06-01,-4.24, -0.95, -5.84, 3.52, 2.70, 9.17, suppf,
2022-06-02,-3.56, -0.76, -0.59, 3.55, 2.70, 9.32, suppf,
2022-06-03,-2.93, -2.39, 1.97, 3.60, 2.78, 9.47, suppf,
2022-06-04,-2.73, -3.98, 1.35, 3.46, 2.63, 9.06, suppf,
2022-06-05,-2.41, -1.55, -1.34, 3.52, 2.71, 9.26, suppf,
2022-06-06,-2.10, -2.20, 5.74, 3.58, 2.79, 9.36, suppf,
2022-06-07,-3.51, -2.41, 0.47, 3.68, 2.82, 9.52, suppf,
2022-06-08,-3.91, -1.48, 10.00, 3.55, 2.71, 9.32, suppf,
2022-06-09,-3.30, -2.10, 8.77, 3.60, 2.72, 9.27, suppf,
2022-06-10,-2.18, -2.34, 8.40, 3.44, 2.60, 9.06, suppf,
2022-06-11,-1.07, -2.28, 2.26, 3.51, 2.68, 9.20, suppf,
2022-06-12,-7.16, 1.12, 8.19, 9.07, 6.55, 32.81, suppf,
2022-06-13,-2.75, -1.83, 3.36, 3.50, 2.69, 9.16, suppf,
2022-06-14,-3.24, -1.24, 0.42, 3.45, 2.61, 9.06, suppf,
2022-06-15,-3.64, -0.64, 6.10, 3.66, 2.84, 9.44, suppf,
2022-06-16,-2.89, -1.88, -2.97, 3.43, 2.62, 9.05, suppf,
2022-06-17,-3.27, -0.66, -1.38, 3.47, 2.66, 9.18, suppf,
2022-06-18,-2.09, -1.23, 7.01, 3.44, 2.64, 9.10, suppf,
2022-06-19,-2.83, -1.99, 2.46, 2.19, 1.41, 6.95, suppf,
2022-06-20,-2.40, -2.44, 2.38, 2.19, 1.41, 6.95, suppf,
2022-06-21,-3.52, -2.57, 2.26, 2.17, 1.41, 6.91, suppf,
2022-06-22,-5.43, -1.65, 8.73, 2.17, 1.41, 6.94, suppf,
2022-06-23,-4.33, -1.83, 8.89, 2.18, 1.41, 6.92, suppf,
2022-06-24,-2.56, -2.54, 1.38, 2.19, 1.44, 7.18, suppf,
2022-06-25,-2.47, -1.08, 8.66, 2.18, 1.41, 6.93, suppf,
2022-06-26,-0.93, -2.86, 1.04, 2.18, 1.42, 6.95, suppf,
2022-06-27,-3.50, -2.14, 0.99, 2.17, 1.42, 6.94, suppf,
2022-06-28,-3.08, -3.60, 0.74, 2.16, 1.41, 6.89, suppf,
2022-06-29,-0.92, -3.06, 4.83, 2.19, 1.41, 6.95, suppf,
2022-06-30,-2.12, -1.15, 4.28, 2.25, 1.45, 7.10, suppf,
2022-07-01,-3.82, -0.00, 0.30, 2.20, 1.42, 6.99, suppf,
2022-07-02,-3.72, -2.35, 4.34, 2.18, 1.42, 6.94, suppf,
2022-07-03,-4.49, -1.70, 5.18, 2.17, 1.41, 6.91, suppf,
2022-07-04,-3.57, -1.87, 6.54, 2.29, 1.48, 7.32, suppf,
2022-07-05,-4.48, -2.38, 7.75, 2.29, 1.48, 7.35, suppf,
2022-07-06,-3.77, -1.58, 2.43, 2.22, 1.45, 7.25, suppf,
2022-07-07,-4.33, -2.04, 11.11, 2.18, 1.42, 6.95, suppf,
2022-07-08,-5.19, -1.73, 9.01, 2.18, 1.42, 6.93, suppf,
2022-07-09,-4.08, -2.21, 11.40, 2.18, 1.41, 6.91, suppf,
2022-07-10,-3.97, -2.24, 8.47, 2.19, 1.41, 6.94, suppf,
2022-07-11,-4.73, -0.75, 11.75, 2.20, 1.42, 7.02, suppf,
2022-07-12,-2.32, -0.12, 3.87, 2.22, 1.46, 7.18, suppf,
2022-07-13,-2.37, -1.05, 7.18, 2.19, 1.42, 6.99, suppf,
2022-07-14,-5.84, -0.17, 8.96, 2.23, 1.45, 7.17, suppf,
2022-07-15,-2.58, -1.47, 9.22, 2.22, 1.45, 7.11, suppf,
2022-07-16,-4.93, -1.61, 4.62, 2.27, 1.48, 7.40, suppf,
2022-07-17,-4.08, -2.02, 12.50, 2.24, 1.44, 7.18, suppf,
2022-07-18,-4.77, -4.14, 14.68, 2.23, 1.44, 7.21, suppf,
2022-07-19,-4.60, -2.12, 16.70, 2.24, 1.44, 7.18, suppf,
2022-07-20,-1.39, -2.54, 9.72, 2.21, 1.42, 7.01, suppf,
2022-07-21,-4.98, -1.60, 6.90, 2.26, 1.44, 7.29, suppf,
2022-07-22,-5.14, -2.01, 18.78, 2.18, 1.42, 6.96, suppf,
2022-07-23,-4.00, -0.94, 12.09, 2.19, 1.42, 7.01, suppf,
2022-07-24,-5.52, -1.53, 8.06, 2.17, 1.41, 6.94, suppf,
2022-07-25,0.00, -0.46, -0.67, 2.22, 1.44, 7.12, suppf,
2022-07-26,-2.93, -1.21, 9.43, 2.17, 1.41, 6.92, suppf,
2022-07-27,-3.57, -2.28, 12.82, 2.17, 1.41, 6.96, suppf,
2022-07-28,-3.52, -2.37, 10.68, 2.17, 1.42, 6.98, suppf,
2022-07-29,-3.07, -1.59, 12.23, 2.24, 1.45, 7.20, suppf,
2022-07-30,-2.90, -0.69, 15.41, 2.21, 1.44, 7.14, suppf,
2022-07-31,-3.14, -3.02, 12.49, 2.19, 1.41, 6.98, suppf,
2022-08-01,-5.09, -1.84, 12.77, 2.23, 1.44, 7.22, suppf,
2022-08-02,0.64, -2.95, 13.93, 2.34, 1.48, 7.27, suppf,
2022-08-03,-5.68, -1.66, 21.19, 2.28, 1.45, 7.22, suppf,
2022-08-04,-4.87, -1.25, 5.68, 2.31, 1.46, 7.29, suppf,
2022-08-05,-4.77, -2.04, 12.08, 2.20, 1.41, 7.04, suppf,
2022-08-06,-3.95, -1.61, 19.78, 2.20, 1.41, 7.02, suppf,
2022-08-07,-5.22, -1.32, 12.69, 2.18, 1.41, 7.01, suppf,
2022-08-08,-3.33, -1.38, 14.78, 2.17, 1.42, 7.02, suppf,
2022-08-09,-4.89, -1.26, 11.96, 2.19, 1.42, 7.03, suppf,
2022-08-10,-3.64, 0.94, 9.44, 2.19, 1.43, 7.06, suppf,
2022-08-11,-4.77, -0.44, 16.57, 2.21, 1.45, 7.16, suppf,
2022-08-12,-3.98, -0.73, 16.00, 2.21, 1.45, 7.18, suppf,
2022-08-13,-2.25, -1.23, 12.54, 2.17, 1.41, 6.97, suppf,
2022-08-14,-5.03, -0.50, 20.75, 2.16, 1.41, 6.95, suppf,
2022-08-15,-5.38, -1.56, 15.46, 2.17, 1.40, 6.94, suppf,
2022-08-16,-6.74, -1.60, 17.99, 2.17, 1.41, 6.95, suppf,
2022-08-17,-7.28, -0.45, 20.54, 2.19, 1.41, 7.02, suppf,
2022-08-18,-2.20, -1.24, 13.33, 2.17, 1.40, 6.96, suppf,
2022-08-19,-1.97, -1.96, 7.47, 2.22, 1.44, 7.16, suppf,
2022-08-20,-4.43, -1.17, 11.56, 2.18, 1.41, 7.01, suppf,
2022-08-21,-4.12, -0.90, 16.18, 2.17, 1.41, 6.98, suppf,
2022-08-22,-4.12, -1.32, 8.65, 2.19, 1.41, 7.02, suppf,
2022-08-23,-4.54, -1.23, 10.91, 2.28, 1.49, 7.42, suppf,
2022-08-24,-3.66, -2.11, 12.22, 2.28, 1.50, 7.44, suppf,
2022-08-25,-2.95, -1.53, 15.83, 2.28, 1.46, 7.20, suppf,
2022-08-26,-3.76, -1.40, 23.26, 2.28, 1.46, 7.22, suppf,
2022-08-27,-3.99, -1.78, 17.93, 2.23, 1.43, 7.03, suppf,
2022-08-28,-7.18, -1.48, 15.05, 2.22, 1.42, 6.97, suppf,
2022-08-29,-7.59, -0.55, 15.33, 2.20, 1.40, 6.95, suppf,
2022-08-30,-5.34, -1.97, 17.57, 2.17, 1.41, 6.98, suppf,
2022-08-31,-5.18, -2.37, 14.65, 2.19, 1.43, 7.12, suppf,
2022-09-01,-5.66, -2.19, 12.19, 2.18, 1.41, 7.01, suppf,
2022-09-02,-5.73, -1.40, 13.11, 2.17, 1.40, 6.94, suppf,
2022-09-03,-7.36, -0.87, 16.31, 2.17, 1.41, 6.98, suppf,
2022-09-04,-6.33, -1.41, 16.30, 2.17, 1.40, 6.95, suppf,
2022-09-05,-6.34, -1.60, 12.55, 2.16, 1.41, 7.00, suppf,
2022-09-06,-4.58, -0.92, 10.13, 2.17, 1.41, 7.00, suppf,
2022-09-07,-2.73, -1.47, 3.15, 2.16, 1.41, 6.97, suppf,
2022-09-08,-4.63, -0.39, 12.12, 2.28, 1.47, 7.18, suppf,
2022-09-09,-2.68, -0.37, 9.34, 2.22, 1.45, 7.12, suppf,
2022-09-10,-3.01, -1.19, 8.60, 2.22, 1.44, 7.11, suppf,
2022-09-11,-2.90, -1.86, 3.37, 2.24, 1.47, 7.26, suppf,
2022-09-12,-0.79, -1.76, 10.89, 2.21, 1.44, 7.08, suppf,
2022-09-13,-3.78, -0.01, 9.49, 2.21, 1.43, 7.04, suppf,
2022-09-14,-1.47, -3.64, 6.44, 2.25, 1.46, 7.30, suppf,
2022-09-15,-3.38, -1.55, 8.31, 2.24, 1.46, 7.32, suppf,
2022-09-16,-2.00, -2.29, 12.44, 2.28, 1.49, 7.39, suppf,
2022-09-17,-3.38, -1.95, 9.63, 2.18, 1.41, 7.01, suppf,
2022-09-18,-4.70, -1.24, 7.16, 2.17, 1.41, 6.96, suppf,
2022-09-19,-3.54, -1.46, 7.13, 2.18, 1.41, 7.00, suppf,
2022-09-20,-5.43, -1.52, 6.76, 2.16, 1.39, 6.88, suppf,
2022-09-21,-5.28, -1.23, 17.23, 2.16, 1.40, 6.92, suppf,
2022-09-22,-4.26, -1.52, 14.10, 2.20, 1.44, 7.16, suppf,
2022-09-23,-4.13, -0.31, 17.02, 2.22, 1.44, 7.19, suppf,
2022-09-24,-4.15, -2.05, 16.77, 2.18, 1.41, 6.99, suppf,
2022-09-25,-6.53, -1.06, 15.95, 2.18, 1.41, 7.00, suppf,
2022-09-26,-5.56, -1.15, 15.49, 2.15, 1.40, 6.90, suppf,
2022-09-27,-4.45, -0.55, 19.43, 2.16, 1.41, 6.96, suppf,
2022-09-28,-3.98, -1.77, 8.20, 2.24, 1.45, 7.12, suppf,
2022-09-29,-6.16, -1.64, 18.30, 2.27, 1.47, 7.20, suppf,
2022-09-30,-5.18, -0.46, 16.59, 2.19, 1.42, 7.05, suppf,
2022-10-01,-5.20, -1.25, 13.95, 2.16, 1.40, 6.93, suppf,
2022-10-02,-3.15, -1.43, 11.78, 2.17, 1.42, 7.01, suppf,
2022-10-03,-1.93, -0.40, 10.14, 2.17, 1.42, 6.99, suppf,
2022-10-04,-2.65, -0.62, 5.04, 2.17, 1.41, 6.96, suppf,
2022-10-05,-5.90, -1.26, 13.98, 2.17, 1.40, 6.94, suppf,
2022-10-06,-4.22, -0.89, 10.74, 2.20, 1.45, 7.25, suppf,
2022-10-07,-3.72, -2.09, 14.94, 2.21, 1.45, 7.24, suppf,
2022-10-08,-3.88, -0.95, 13.55, 2.18, 1.43, 7.05, suppf,
2022-10-09,-4.36, -3.54, 10.59, 2.17, 1.42, 7.00, suppf,
2022-10-10,-1.67, -3.00, 27.06, 2.18, 1.43, 7.10, suppf,
2022-10-11,-2.96, -0.09, 16.72, 2.18, 1.43, 7.13, suppf,
2022-10-12,-3.55, -0.44, 13.39, 2.21, 1.45, 7.36, suppf,
2022-10-13,-3.97, -0.44, 12.22, 2.22, 1.47, 7.33, suppf,
2022-10-14,-5.01, 0.22, 21.97, 2.20, 1.45, 7.26, suppf,
2022-10-15,-5.40, -0.28, 19.49, 2.18, 1.42, 7.03, suppf,
2022-10-16,-6.05, 0.46, 8.61, 2.16, 1.40, 6.93, suppf,
2022-10-17,-5.73, -0.78, 19.34, 2.16, 1.40, 6.92, suppf,
2022-10-18,-5.53, -1.19, 16.88, 2.26, 1.47, 7.34, suppf,
2022-10-19,-4.49, -0.66, 23.22, 2.31, 1.50, 7.75, suppf,
2022-10-20,-3.19, 0.20, 14.11, 2.25, 1.44, 7.14, suppf,
2022-10-21,-4.00, -1.07, 15.93, 2.22, 1.42, 7.05, suppf,
2022-10-22,-4.68, -0.80, 19.75, 2.17, 1.41, 6.96, suppf,
2022-10-23,-5.08, -0.67, 16.29, 2.17, 1.40, 6.93, suppf,
2022-10-24,-6.31, -2.30, 15.69, 2.20, 1.42, 7.04, suppf,
2022-10-25,-3.27, -2.29, 17.76, 2.16, 1.42, 6.98, suppf,
2022-10-26,-4.75, -1.23, 23.81, 2.26, 1.47, 7.28, suppf,
2022-10-27,-5.03, 0.17, 25.81, 2.28, 1.47, 7.34, suppf,
2022-10-28,-3.98, -1.14, 19.82, 2.21, 1.44, 7.07, suppf,
2022-10-29,-4.94, -1.06, 23.67, 2.15, 1.40, 6.87, suppf,
2022-10-30,-4.19, -2.58, 22.12, 2.16, 1.41, 6.90, suppf,
2022-10-31,-2.59, -0.65, 28.29, 2.17, 1.42, 6.97, suppf,
2022-11-01,-3.10, -0.92, 15.13, 2.16, 1.41, 6.94, suppf,
2022-11-02,-1.68, -1.53, 9.17, 2.20, 1.45, 7.24, suppf,
2022-11-03,-3.36, -1.76, 18.30, 2.21, 1.45, 7.38, suppf,
2022-11-04,-3.78, -2.44, 16.19, 2.18, 1.43, 7.03, suppf,
2022-11-05,-2.54, -1.56, 20.64, 2.16, 1.42, 6.95, suppf,
2022-11-06,-2.18, -2.10, 11.66, 2.16, 1.42, 6.93, suppf,
2022-11-07,-0.82, -1.09, 7.01, 2.23, 1.46, 7.25, suppf,
2022-11-08,-3.99, -2.09, 5.60, 2.16, 1.41, 6.93, suppf,
2022-11-09,-3.66, -3.57, 7.50, 2.16, 1.40, 6.90, suppf,
2022-11-10,-2.07, -1.12, 4.84, 2.20, 1.43, 6.99, suppf,
2022-11-11,-1.36, -0.81, 14.92, 2.17, 1.43, 7.00, suppf,
2022-11-12,-1.98, -1.70, 11.61, 2.16, 1.42, 6.95, suppf,
2022-11-13,-0.59, -1.59, 9.02, 2.17, 1.41, 6.94, suppf,
2022-11-14,0.71, -2.73, 5.94, 2.18, 1.42, 7.00, suppf,
2022-11-15,-1.15, -3.49, 8.98, 2.15, 1.42, 6.91, suppf,
2022-11-16,-1.31, -4.67, 2.60, 2.20, 1.44, 7.12, suppf,
2022-11-17,-1.25, -3.38, -5.05, 2.15, 1.41, 6.92, suppf,
2022-11-18,-3.70, -3.80, 4.18, 2.17, 1.43, 7.01, suppf,
2022-11-19,-2.03, -3.62, 6.43, 2.15, 1.40, 6.87, suppf,
2022-11-20,-2.45, -4.49, 7.60, 2.14, 1.40, 6.86, suppf,
2022-11-21,-3.78, -3.71, 8.01, 2.17, 1.40, 6.93, suppf,
2022-11-22,-3.51, -2.98, 14.67, 2.15, 1.40, 6.90, suppf,
2022-11-23,-3.50, -4.67, 14.77, 2.14, 1.41, 6.90, suppf,
2022-11-24,-3.72, -2.25, 13.32, 2.16, 1.42, 6.96, suppf,
2022-11-25,-0.93, -5.11, 10.22, 2.19, 1.44, 6.97, suppf,
2022-11-26,-2.62, -2.36, 11.98, 2.20, 1.44, 6.98, suppf,
2022-11-27,-3.72, -2.55, 9.78, 2.15, 1.41, 6.95, suppf,
2022-11-28,-2.08, -1.59, 7.20, 2.16, 1.44, 7.13, suppf,
2022-11-29,-3.99, -1.95, 6.52, 2.14, 1.41, 6.91, suppf,
2022-11-30,0.47, 0.10, 15.07, 2.16, 1.42, 6.97, suppf,
2022-12-01,-5.24, -3.65, 17.24, 2.19, 1.43, 7.07, suppf,
2022-12-02,-4.75, -0.80, 25.86, 2.15, 1.41, 6.89, suppf,
2022-12-03,-2.48, -0.88, 16.97, 2.15, 1.41, 6.92, suppf,
2022-12-04,0.70, -1.51, 5.54, 2.16, 1.41, 6.93, suppf,
2022-12-05,-4.01, 2.19, 12.02, 2.15, 1.41, 6.91, suppf,
2022-12-06,-2.68, -2.40, 1.82, 2.16, 1.42, 6.95, suppf,
2022-12-07,-4.02, 0.90, 17.12, 2.15, 1.41, 6.89, suppf,
2022-12-08,-2.51, -1.48, 16.21, 2.15, 1.42, 6.96, suppf,
2022-12-09,-4.63, -1.17, 20.79, 2.17, 1.42, 6.98, suppf,
2022-12-10,-3.39, -2.73, 5.74, 2.15, 1.41, 6.93, suppf,
2022-12-11,-4.05, -1.93, 4.09, 2.14, 1.41, 6.89, suppf,
2022-12-12,-3.30, -2.89, 6.81, 2.15, 1.41, 6.89, suppf,
2022-12-13,-2.92, -3.12, 4.63, 2.18, 1.43, 6.96, suppf,
2022-12-14,-3.62, -1.98, 5.99, 2.19, 1.44, 7.00, suppf,
2022-12-15,-2.08, -1.43, 1.78, 2.16, 1.42, 6.99, suppf,
2022-12-16,-2.92, -1.18, 5.65, 2.16, 1.41, 6.95, suppf,
2022-12-17,-1.58, -1.22, 9.44, 2.15, 1.41, 6.89, suppf,
2022-12-18,-1.76, -3.06, 3.68, 2.15, 1.41, 6.89, suppf,
2022-12-19,-2.52, -2.55, 9.21, 2.15, 1.40, 6.92, suppf,
2022-12-20,-0.68, -2.60, 6.15, 2.21, 1.44, 6.99, suppf,
2022-12-21,-3.16, -1.30, 6.94, 2.19, 1.45, 7.02, suppf,
2022-12-22,-3.01, -1.60, 4.19, 2.14, 1.41, 6.88, suppf,
2022-12-23,-3.66, -2.15, 3.55, 2.13, 1.40, 6.84, suppf,
2022-12-24,-4.02, -2.89, 5.84, 2.15, 1.40, 6.87, suppf,
2022-12-25,-3.23, -2.47, 15.65, 2.15, 1.41, 6.92, suppf,
2022-12-26,-6.35, -4.04, 12.50, 2.14, 1.41, 6.92, suppf,
2022-12-27,-3.74, -2.52, 15.97, 2.16, 1.44, 7.13, suppf,
2022-12-28,-3.42, -2.18, 15.03, 2.24, 1.47, 7.24, suppf,
2022-12-29,-3.74, -4.54, 6.43, 2.14, 1.40, 6.85, suppf,
2022-12-30,-3.54, -2.08, 18.37, 2.15, 1.41, 6.94, suppf,
2022-12-31,-3.59, -2.63, 11.39, 2.15, 1.41, 6.94, suppf,
2023-01-01,-3.90, -3.22, 5.01, 2.14, 1.41, 6.93, suppf,
2023-01-02,-2.72, -2.75, 11.61, 2.14, 1.40, 6.87, suppf,
2023-01-03,-2.12, -1.94, 4.31, 2.14, 1.40, 6.86, suppf,
2023-01-04,-2.31, -3.69, 5.56, 2.15, 1.41, 6.93, suppf,
2023-01-05,-2.09, -3.55, 7.12, 2.15, 1.41, 6.94, suppf,
2023-01-06,-2.47, -3.28, 0.34, 2.15, 1.41, 6.95, suppf,
2023-01-07,-1.59, -2.82, 6.20, 2.14, 1.40, 6.87, suppf,
2023-01-08,-3.68, -3.56, 7.26, 2.13, 1.40, 6.87, suppf,
2023-01-09,-2.40, -4.46, 8.55, 2.15, 1.41, 6.92, suppf,
2023-01-10,-0.26, -3.47, 8.38, 2.15, 1.41, 6.94, suppf,
2023-01-11,-1.18, -3.33, 11.12, 2.19, 1.44, 7.03, suppf,
2023-01-12,-0.28, -4.11, 10.02, 2.15, 1.41, 6.92, suppf,
2023-01-13,-0.10, -4.20, 7.06, 2.14, 1.41, 6.90, suppf,
2023-01-14,-0.97, -3.07, 7.70, 2.15, 1.41, 6.91, suppf,
2023-01-15,-2.77, -4.20, 9.34, 2.15, 1.41, 6.93, suppf,
2023-01-16,-1.37, -2.70, 7.58, 2.14, 1.41, 6.91, suppf,
2023-01-17,-3.49, -5.47, 12.66, 2.15, 1.41, 6.94, suppf,
2023-01-18,-1.17, -5.14, 10.54, 2.14, 1.40, 6.90, suppf,
2023-01-19,-3.48, -5.60, 7.32, 2.14, 1.40, 6.89, suppf,
2023-01-20,-1.51, -4.87, 8.40, 2.20, 1.43, 6.97, suppf,
2023-01-21,-2.43, -5.57, 3.59, 2.21, 1.44, 7.04, suppf,
2023-01-22,-4.76, -2.81, 1.10, 2.27, 1.47, 7.14, suppf,
2023-01-23,-1.90, -3.89, 1.95, 2.22, 1.43, 7.07, suppf,
2023-01-24,-1.48, -4.79, 0.30, 2.20, 1.44, 7.06, suppf,
2023-01-25,-1.40, -4.62, 0.50, 2.23, 1.48, 7.18, suppf,
2023-01-26,-1.86, -3.81, -0.01, 2.26, 1.49, 7.32, suppf,
2023-01-27,-2.29, -3.72, -0.18, 2.21, 1.48, 7.22, suppf,
2023-01-28,-0.88, -3.78, -4.30, 2.20, 1.45, 7.05, suppf,
2023-01-29,-1.97, -3.36, -0.26, 2.24, 1.46, 7.18, suppf,
2023-01-30,-1.98, -4.47, 1.07, 2.23, 1.46, 7.15, suppf,
2023-01-31,-2.91, -5.63, 5.00, 2.30, 1.48, 7.20, suppf,
2023-02-01,-4.19, -4.41, 11.20, 2.22, 1.46, 7.10, suppf,
2023-02-02,-3.02, -4.93, 6.39, 2.23, 1.46, 7.12, suppf,
2023-02-03,-3.35, -5.57, 11.29, 2.21, 1.46, 7.09, suppf,
2023-02-04,-1.23, -5.40, 7.06, 2.19, 1.45, 7.02, suppf,
2023-02-05,-3.53, -6.15, 12.06, 2.19, 1.44, 7.00, suppf,
2023-02-06,-1.42, -6.11, 8.68, 2.20, 1.45, 7.02, suppf,
2023-02-07,-3.69, -5.70, 10.74, 2.19, 1.45, 7.00, suppf,
2023-02-08,-3.93, -4.71, 10.12, 2.19, 1.44, 6.99, suppf,
2023-02-09,-4.66, -4.75, 12.42, 2.19, 1.45, 7.03, suppf,
2023-02-10,-3.41, -4.14, 9.52, 2.19, 1.44, 6.99, suppf,
2023-02-11,-1.95, -4.68, 11.95, 2.19, 1.44, 6.99, suppf,
2023-02-12,-3.89, -3.66, 17.00, 2.19, 1.44, 7.01, suppf,
2023-02-13,-2.22, -3.44, 12.90, 2.21, 1.48, 7.11, suppf,
2023-02-14,-3.86, -1.93, 6.12, 2.22, 1.49, 7.18, suppf,
2023-02-15,-5.46, -0.60, 17.50, 2.21, 1.47, 7.13, suppf,
2023-02-16,-2.97, -3.64, 5.76, 2.24, 1.48, 7.13, suppf,
2023-02-17,-0.60, -6.51, -1.72, 2.25, 1.47, 7.15, suppf,
2023-02-18,-0.20, -6.15, 1.42, 2.21, 1.45, 7.08, suppf,
2023-02-19,-2.55, -3.48, 4.85, 2.18, 1.44, 6.96, suppf,
2023-02-20,-0.95, -4.17, 7.81, 2.19, 1.45, 7.01, suppf,
2023-02-21,0.43, -0.53, 9.35, 2.20, 1.45, 7.06, suppf,
2023-02-22,-2.06, -2.33, -4.30, 2.19, 1.45, 7.04, suppf,
2023-02-23,-4.86, -1.82, -3.53, 2.22, 1.47, 7.18, suppf,
2023-02-24,-2.09, -3.82, 8.42, 2.19, 1.44, 7.01, suppf,
2023-02-25,-2.79, -4.85, 6.96, 2.19, 1.45, 7.06, suppf,
2023-02-26,-2.21, -3.78, 10.65, 2.21, 1.46, 7.12, suppf,
2023-02-27,-4.28, -0.34, 24.82, 2.27, 1.48, 7.17, suppf,
2023-02-28,-3.46, -3.25, 7.23, 2.22, 1.47, 7.15, suppf,
2023-03-01,-3.53, -2.38, 4.00, 2.20, 1.44, 7.04, suppf,
2023-03-02,-0.67, -3.31, 4.00, 2.18, 1.45, 7.00, suppf,
2023-03-03,-4.21, -1.09, 7.86, 2.20, 1.45, 7.05, suppf,
2023-03-04,-0.91, -2.66, 5.61, 2.20, 1.45, 7.04, suppf,
2023-03-05,-1.35, -1.96, -1.10, 2.21, 1.45, 7.05, suppf,
2023-03-06,-0.44, -2.62, -1.79, 2.19, 1.45, 7.02, suppf,
2023-03-07,-0.83, -4.33, -6.11, 2.20, 1.45, 7.03, suppf,
2023-03-08,-2.86, -3.92, 5.93, 2.19, 1.44, 6.97, suppf,
2023-03-09,-1.86, -2.57, 6.07, 2.26, 1.49, 7.20, suppf,
2023-03-10,-1.39, -4.12, 8.18, 2.26, 1.47, 7.16, suppf,
2023-03-11,-2.87, -2.12, 7.49, 2.19, 1.44, 7.00, suppf,
2023-03-12,-1.02, -1.57, 6.46, 2.21, 1.44, 7.05, suppf,
2023-03-13,-1.76, -4.86, 5.26, 2.19, 1.44, 7.00, suppf,
2023-03-14,-2.61, -1.97, 11.84, 2.21, 1.46, 7.05, suppf,
2023-03-15,-2.11, -3.09, 11.08, 2.20, 1.45, 7.03, suppf,
2023-03-16,-4.75, -1.90, 10.88, 2.18, 1.44, 6.98, suppf,
2023-03-17,-3.69, -1.27, 6.59, 2.18, 1.44, 6.96, suppf,
2023-03-18,-2.80, -2.67, 8.65, 2.19, 1.44, 6.98, suppf,
2023-03-19,-1.17, -2.59, 10.86, 2.15, 1.41, 6.83, suppf,
2023-03-20,-1.01, -1.86, 5.72, 2.16, 1.42, 6.89, suppf,
2023-03-21,-2.65, -1.64, 7.56, 2.17, 1.42, 6.89, suppf,
2023-03-22,-3.52, -2.47, 5.93, 2.16, 1.42, 6.87, suppf,
2023-03-23,-1.33, -3.28, 1.26, 2.22, 1.49, 7.24, suppf,
2023-03-24,-2.55, -2.04, 2.75, 2.21, 1.46, 7.13, suppf,
2023-03-25,-0.63, -0.24, 5.69, 2.16, 1.43, 6.94, suppf,
2023-03-26,-0.96, -3.15, 0.53, 2.16, 1.42, 6.93, final,
2023-03-27,-0.96, -2.41, -6.33, 2.15, 1.42, 6.91, final,
2023-03-28,-1.40, -2.81, -2.97, 2.16, 1.41, 6.90, final,
2023-03-29,1.21, -3.22, -0.78, 2.23, 1.44, 7.05, final,
2023-03-30,-0.01, -2.06, 4.82, 2.26, 1.47, 7.18, final,
2023-03-31,0.27, -3.96, 7.16, 2.15, 1.43, 6.93, final,
2023-04-01,-1.87, -4.91, 12.09, 2.16, 1.42, 6.92, final,
2023-04-02,-2.92, -2.06, 3.98, 2.16, 1.41, 6.89, final,
2023-04-03,-2.00, -1.28, 0.00, 2.20, 1.45, 7.18, final,
2023-04-04,-2.09, -1.84, -0.95, 2.19, 1.44, 7.14, final,
2023-04-05,-2.05, -2.35, 6.36, 2.15, 1.42, 6.90, final,
2023-04-06,-1.47, -3.81, 9.59, 2.21, 1.44, 7.02, final,
2023-04-07,-1.15, -3.78, 8.21, 2.15, 1.41, 6.88, final,
2023-04-08,-3.73, -3.26, 8.90, 2.16, 1.41, 6.88, final,
2023-04-09,-0.49, -3.49, 8.14, 2.17, 1.42, 6.90, final,
2023-04-10,-2.22, -3.87, 3.95, 2.16, 1.42, 6.92, final,
2023-04-11,-1.07, -2.97, -0.91, 2.18, 1.44, 7.00, final,
2023-04-12,-0.62, -3.10, -0.17, 2.16, 1.42, 6.89, final,
2023-04-13,-0.52, -3.45, 2.51, 2.21, 1.44, 7.15, final,
2023-04-14,-4.29, -3.91, 8.65, 2.33, 1.51, 7.59, final,
2023-04-15,-4.07, -3.52, 7.05, 2.25, 1.47, 7.22, final,
2023-04-16,-1.06, -3.63, 12.20, 2.22, 1.45, 7.07, final,
2023-04-17,-0.54, -3.69, 15.00, 2.16, 1.43, 6.93, final,
2023-04-18,-1.83, -8.16, 11.94, 2.17, 1.43, 6.93, final,
2023-04-19,-2.14, -2.27, 5.55, 2.19, 1.43, 6.95, final,
2023-04-20,-1.63, -3.25, -7.11, 2.17, 1.42, 6.89, final,
2023-04-21,-2.86, -3.76, -3.84, 2.17, 1.42, 6.90, final,
2023-04-22,-2.95, -3.80, -0.53, 2.18, 1.42, 6.89, final,
2023-04-23,-5.37, -1.15, 12.15, 2.23, 1.45, 7.07, final,
2023-04-24,-2.56, -4.54, 1.39, 2.30, 1.48, 7.13, final,
2023-04-25,-1.32, -2.86, -2.80, 2.18, 1.42, 6.86, final,
2023-04-26,-2.78, -2.91, 6.37, 2.19, 1.42, 6.86, final,
2023-04-27,-3.19, -2.62, 7.10, 2.18, 1.43, 6.85, final,
2023-04-28,-0.03, -1.40, 4.56, 2.17, 1.42, 6.80, final,
2023-04-29,-2.25, -1.48, 6.03, 2.19, 1.42, 6.84, final,
2023-04-30,-0.88, -1.04, 0.40, 2.19, 1.43, 6.87, final,
2023-05-01,-0.90, -2.61, 5.81, 2.19, 1.43, 6.84, final,
2023-05-02,-2.20, -2.52, 3.91, 2.19, 1.43, 6.84, final,
2023-05-03,-2.68, -2.69, 5.56, 2.19, 1.42, 6.80, final,
2023-05-04,-2.89, -1.40, -3.89, 2.19, 1.42, 6.79, final,
2023-05-05,-1.93, -2.81, -1.43, 2.20, 1.42, 6.83, final,
2023-05-06,-1.57, -2.49, 5.86, 2.23, 1.44, 6.93, final,
2023-05-07,-1.79, -1.46, 3.14, 2.20, 1.42, 6.82, final,
2023-05-08,-1.12, -2.24, 3.33, 2.20, 1.42, 6.83, final,
2023-05-09,-2.71, -2.30, -0.25, 2.20, 1.42, 6.86, final,
2023-05-10,-3.11, -1.65, -2.85, 2.20, 1.41, 6.83, final,
2023-05-11,-3.40, -2.24, 0.17, 2.21, 1.41, 6.88, final,
2023-05-12,-2.63, -1.88, 1.67, 2.21, 1.42, 6.90, final,
2023-05-13,-2.37, -2.12, 1.38, 2.20, 1.41, 6.87, final,
2023-05-14,-1.91, -1.88, 0.39, 2.20, 1.42, 6.90, final,
2023-05-15,0.13, -1.92, -4.01, 2.20, 1.41, 6.88, final,
2023-05-16,-0.73, -2.35, -5.26, 2.21, 1.43, 6.98, final,
2023-05-17,0.68, -2.77, -3.61, 2.20, 1.42, 6.91, final,
2023-05-18,-0.25, -3.81, -1.67, 2.23, 1.44, 6.96, final,
2023-05-19,-0.11, -1.49, -7.27, 2.31, 1.48, 7.14, final,
2023-05-20,0.05, -2.47, -5.58, 2.24, 1.47, 7.09, final,
2023-05-21,0.06, -1.71, -5.51, 2.22, 1.45, 7.02, final,
2023-05-22,-0.33, -2.55, -8.58, 2.24, 1.45, 7.08, final,
2023-05-23,-0.57, -1.88, -5.12, 2.19, 1.42, 6.83, final,
2023-05-24,-2.17, -3.14, 0.65, 2.19, 1.43, 6.85, final,
2023-05-25,0.55, -2.01, -4.06, 2.19, 1.43, 6.85, final,
2023-05-26,-1.03, -3.57, -3.96, 2.19, 1.42, 6.82, final,
2023-05-27,-1.62, -2.77, 9.17, 2.19, 1.42, 6.82, final,
2023-05-28,0.46, -2.47, 3.77, 2.18, 1.42, 6.80, final,
2023-05-29,0.30, -3.39, 1.61, 2.18, 1.42, 6.80, final,
2023-05-30,-0.02, -3.15, 0.09, 2.19, 1.42, 6.81, final,
2023-05-31,-1.22, -2.58, -1.28, 2.18, 1.42, 6.80, final,